This is the latest recevied weather packets stored in our database for station/object IU0KRR-10. If no packets are shown the sender has not sent any weather packets the latest 1 day(s).
| Time | Temp. | Humidity | Pressure | Rain* | Wind** | Luminosity | Snow |
|---|---|---|---|---|---|---|---|
| 1788570926 | 20° C | 62% | 878.2 hPa | - | - | - | - |
| 1788569214 | 20° C | 61% | 878.2 hPa | - | - | - | - |
| 1788569124 | 20° C | 61% | 878.2 hPa | - | - | - | - |
| 1788568224 | 20° C | 62% | 878.3 hPa | - | - | - | - |
| 1788567361 | 20° C | 62% | 878.4 hPa | - | - | - | - |
| 1788567323 | 20° C | 62% | 878.4 hPa | - | - | - | - |
| 1788566423 | 20° C | 61% | 878.4 hPa | - | - | - | - |
| 1788565523 | 20° C | 59% | 878.6 hPa | - | - | - | - |
| 1788564623 | 20° C | 59% | 878.6 hPa | - | - | - | - |
| 1788563722 | 20.56° C | 56% | 878.8 hPa | - | - | - | - |
| 1788562869 | 20.56° C | 56% | 878.9 hPa | - | - | - | - |
| 1788562821 | 20.56° C | 56% | 878.9 hPa | - | - | - | - |
| 1788561921 | 20.56° C | 56% | 879 hPa | - | - | - | - |
| 1788561020 | 20.56° C | 56% | 878.9 hPa | - | - | - | - |
| 1788560120 | 21.11° C | 57% | 878.8 hPa | - | - | - | - |
| 1788559220 | 21.11° C | 57% | 878.8 hPa | - | - | - | - |
| 1788558319 | 21.11° C | 55% | 878.9 hPa | - | - | - | - |
| 1788557478 | 21.11° C | 55% | 878.8 hPa | - | - | - | - |
| 1788557419 | 21.11° C | 55% | 878.8 hPa | - | - | - | - |
| 1788556518 | 21.67° C | 53% | 879 hPa | - | - | - | - |
| 1788555618 | 21.67° C | 51% | 879 hPa | - | - | - | - |
| 1788554716 | 22.22° C | 48% | 879.1 hPa | - | - | - | - |
| 1788553816 | 22.78° C | 45% | 879 hPa | - | - | - | - |
| 1788552915 | 23.33° C | 40% | 878.9 hPa | - | - | - | - |
| 1788552015 | 23.33° C | 37% | 878.9 hPa | - | - | - | - |
* Rain since midnight (hover to see other rain measurements)
** Current wind speed in m/s (hover to see current wind gust speed)